• In Austria
  • List of Countries
  • For 7 days
  • Water Temperature
  • Satellite Maps
  • Weather Map
  • News
  • Weather Widgets
  • user-avatar
    Login

    Hourly Weather Eremkovichi

    Today, 25 September, Tuesday

    Time Temperature Precipitation Wind Pressure Humidity
    00:00 +5°C° 0 mm 6 mps 737 mmHg 91%
    01:00 +5°C° 0 mm 6 mps 738 mmHg 90%
    02:00 +5°C° 0 mm 6 mps 739 mmHg 90%
    03:00 +5°C° 0 mm 6 mps 739 mmHg 90%
    04:00 +4°C° 0 mm 6 mps 740 mmHg 91%
    05:00 +3°C° 0 mm 6 mps 741 mmHg 92%
    06:00 +3°C° 0 mm 6 mps 741 mmHg 91%
    07:00 +3°C° 0 mm 6 mps 742 mmHg 89%
    08:00 +3°C° 0 mm 7 mps 743 mmHg 88%
    09:00 +4°C° 0 mm 7 mps 743 mmHg 86%
    10:00 +4°C° 0 mm 7 mps 744 mmHg 84%
    11:00 +4°C° 0 mm 7 mps 744 mmHg 82%
    12:00 +5°C° 0.1 mm 6 mps 745 mmHg 78%
    13:00 +7°C° 0.1 mm 6 mps 745 mmHg 74%
    14:00 +7°C° 0.1 mm 6 mps 746 mmHg 69%
    15:00 +7°C° 0.1 mm 6 mps 746 mmHg 70%
    16:00 +7°C° 0.1 mm 5 mps 747 mmHg 71%
    17:00 +6°C° 0.1 mm 5 mps 747 mmHg 71%
    18:00 +6°C° 0 mm 5 mps 748 mmHg 73%
    19:00 +5°C° 0 mm 5 mps 749 mmHg 74%
    20:00 +3°C° 0 mm 5 mps 749 mmHg 76%
    21:00 +3°C° 0 mm 5 mps 750 mmHg 75%
    22:00 +2°C° 0 mm 5 mps 751 mmHg 75%
    23:00 +2°C° 0 mm 5 mps 751 mmHg 75%

    Tomorrow, 26 September, Wednesday

    Time Temperature Precipitation Wind Pressure Humidity
    00:00 +1°C° 0 mm 4 mps 752 mmHg 75%
    01:00 +1°C° 0 mm 4 mps 753 mmHg 75%
    02:00 0°C° 0 mm 4 mps 753 mmHg 76%
    03:00 0°C° 0 mm 4 mps 754 mmHg 78%
    04:00 0°C° 0 mm 4 mps 754 mmHg 80%
    05:00 -1°C° 0 mm 4 mps 754 mmHg 82%
    06:00 0°C° 0 mm 4 mps 755 mmHg 82%
    07:00 +1°C° 0 mm 4 mps 755 mmHg 82%
    08:00 +3°C° 0 mm 4 mps 755 mmHg 82%
    09:00 +5°C° 0 mm 4 mps 755 mmHg 75%
    10:00 +7°C° 0 mm 4 mps 755 mmHg 68%
    11:00 +9°C° 0 mm 5 mps 755 mmHg 61%
    12:00 +9°C° 0 mm 5 mps 755 mmHg 57%
    13:00 +10°C° 0 mm 5 mps 754 mmHg 54%
    14:00 +10°C° 0 mm 5 mps 754 mmHg 51%
    15:00 +10°C° 0 mm 5 mps 753 mmHg 55%
    16:00 +9°C° 0 mm 5 mps 753 mmHg 59%
    17:00 +8°C° 0 mm 4 mps 752 mmHg 63%
    18:00 +8°C° 0.1 mm 5 mps 752 mmHg 66%
    19:00 +7°C° 0.1 mm 6 mps 751 mmHg 68%
    20:00 +7°C° 0.1 mm 6 mps 751 mmHg 71%
    21:00 +6°C° 0.5 mm 7 mps 750 mmHg 75%
    22:00 +5°C° 0.5 mm 8 mps 749 mmHg 80%
    23:00 +5°C° 0.5 mm 8 mps 748 mmHg 84%

    Day after tomorrow, 27 September, Thursday

    Time Temperature Precipitation Wind Pressure Humidity
    00:00 +5°C° 1.1 mm 9 mps 747 mmHg 86%
    01:00 +5°C° 1.1 mm 9 mps 746 mmHg 87%
    02:00 +5°C° 1.1 mm 9 mps 745 mmHg 88%
    03:00 +5°C° 0.9 mm 9 mps 744 mmHg 89%
    04:00 +6°C° 0.9 mm 9 mps 743 mmHg 89%
    05:00 +6°C° 0.9 mm 9 mps 743 mmHg 90%
    06:00 +6°C° 0.3 mm 8 mps 743 mmHg 90%
    07:00 +7°C° 0.3 mm 8 mps 743 mmHg 90%
    08:00 +7°C° 0.3 mm 8 mps 742 mmHg 90%
    09:00 +9°C° 0.3 mm 7 mps 743 mmHg 89%
    10:00 +10°C° 0.3 mm 7 mps 743 mmHg 88%
    11:00 +10°C° 0.3 mm 6 mps 743 mmHg 87%
    12:00 +11°C° 0.1 mm 6 mps 743 mmHg 81%
    13:00 +13°C° 0.1 mm 6 mps 744 mmHg 75%
    14:00 +14°C° 0.1 mm 6 mps 744 mmHg 69%
    15:00 +14°C° 0.1 mm 5 mps 744 mmHg 72%
    16:00 +13°C° 0.1 mm 4 mps 744 mmHg 74%
    17:00 +12°C° 0.1 mm 3 mps 744 mmHg 76%
    18:00 +11°C° 0 mm 3 mps 744 mmHg 79%
    19:00 +10°C° 0 mm 3 mps 745 mmHg 82%
    20:00 +9°C° 0 mm 3 mps 745 mmHg 86%
    21:00 +9°C° 0 mm 3 mps 745 mmHg 88%
    22:00 +8°C° 0 mm 3 mps 745 mmHg 90%
    23:00 +8°C° 0 mm 3 mps 745 mmHg 92%

    28 September, Friday

    Time Temperature Precipitation Wind Pressure Humidity
    00:00 +8°C° 0 mm 3 mps 745 mmHg 93%
    01:00 +7°C° 0 mm 4 mps 744 mmHg 94%
    02:00 +7°C° 0 mm 4 mps 744 mmHg 95%
    03:00 +9°C° 0 mm 5 mps 743 mmHg 93%
    04:00 +10°C° 0 mm 7 mps 742 mmHg 91%
    05:00 +11°C° 0 mm 8 mps 741 mmHg 90%
    06:00 +11°C° 0 mm 8 mps 741 mmHg 88%
    07:00 +12°C° 0 mm 9 mps 740 mmHg 86%
    08:00 +12°C° 0 mm 9 mps 740 mmHg 85%
    09:00 +13°C° 0.2 mm 10 mps 740 mmHg 83%
    10:00 +13°C° 0.2 mm 10 mps 740 mmHg 82%
    11:00 +13°C° 0.2 mm 10 mps 740 mmHg 81%
    12:00 +13°C° 0.3 mm 10 mps 740 mmHg 77%
    13:00 +13°C° 0.3 mm 9 mps 741 mmHg 72%
    14:00 +13°C° 0.3 mm 9 mps 741 mmHg 68%
    15:00 +11°C° 0 mm 8 mps 742 mmHg 70%
    16:00 +10°C° 0 mm 6 mps 743 mmHg 73%
    17:00 +8°C° 0 mm 5 mps 744 mmHg 75%
    18:00 +7°C° 0 mm 4 mps 745 mmHg 79%
    19:00 +7°C° 0 mm 3 mps 746 mmHg 82%
    20:00 +5°C° 0 mm 2 mps 746 mmHg 86%
    21:00 +5°C° 0 mm 2 mps 747 mmHg 87%
    22:00 +5°C° 0 mm 2 mps 747 mmHg 88%
    23:00 +5°C° 0 mm 1 mps 747 mmHg 89%

    29 September, Saturday

    Time Temperature Precipitation Wind Pressure Humidity
    00:00 +5°C° 0 mm 1 mps 747 mmHg 90%
    01:00 +5°C° 0 mm 1 mps 747 mmHg 90%
    02:00 +5°C° 0 mm 1 mps 748 mmHg 91%
    03:00 +5°C° 0 mm 1 mps 748 mmHg 90%
    04:00 +4°C° 0 mm 2 mps 748 mmHg 90%
    05:00 +4°C° 0 mm 2 mps 748 mmHg 90%
    06:00 +5°C° 0 mm 2 mps 748 mmHg 87%
    07:00 +5°C° 0 mm 2 mps 748 mmHg 85%
    08:00 +6°C° 0 mm 2 mps 748 mmHg 82%
    09:00 +7°C° 0 mm 2 mps 749 mmHg 78%
    10:00 +8°C° 0 mm 2 mps 749 mmHg 75%
    11:00 +9°C° 0 mm 2 mps 749 mmHg 71%
    12:00 +9°C° 0.1 mm 2 mps 749 mmHg 69%
    13:00 +10°C° 0.1 mm 2 mps 749 mmHg 67%
    14:00 +10°C° 0.1 mm 2 mps 749 mmHg 66%
    15:00 +10°C° 0.1 mm 2 mps 750 mmHg 69%
    16:00 +9°C° 0.1 mm 2 mps 750 mmHg 72%
    17:00 +8°C° 0.1 mm 2 mps 750 mmHg 76%
    18:00 +7°C° 0 mm 2 mps 751 mmHg 78%
    19:00 +6°C° 0 mm 2 mps 751 mmHg 80%
    20:00 +4°C° 0 mm 2 mps 751 mmHg 81%
    21:00 +4°C° 0 mm 2 mps 752 mmHg 81%
    22:00 +3°C° 0 mm 2 mps 752 mmHg 80%
    23:00 +3°C° 0 mm 2 mps 752 mmHg 79%

    30 September, Sunday

    Time Temperature Precipitation Wind Pressure Humidity
    00:00 +4°C° 0 mm 1 mps 752 mmHg 80%
    01:00 +3°C° 0 mm 1 mps 752 mmHg 80%
    02:00 +3°C° 0 mm 1 mps 753 mmHg 80%
    03:00 +3°C° 0 mm 1 mps 753 mmHg 82%
    04:00 +2°C° 0 mm 1 mps 752 mmHg 84%
    05:00 +2°C° 0 mm 1 mps 752 mmHg 85%
    06:00 +3°C° 0 mm 1 mps 752 mmHg 84%
    07:00 +4°C° 0 mm 1 mps 752 mmHg 83%
    08:00 +5°C° 0 mm 1 mps 752 mmHg 81%
    09:00 +6°C° 0 mm 2 mps 752 mmHg 76%
    10:00 +7°C° 0 mm 2 mps 752 mmHg 70%
    11:00 +9°C° 0 mm 2 mps 752 mmHg 65%
    12:00 +9°C° 0 mm 3 mps 751 mmHg 63%
    13:00 +10°C° 0 mm 3 mps 751 mmHg 61%
    14:00 +11°C° 0 mm 3 mps 750 mmHg 60%
    15:00 +10°C° 0 mm 3 mps 750 mmHg 64%
    16:00 +9°C° 0 mm 2 mps 749 mmHg 68%
    17:00 +9°C° 0 mm 2 mps 749 mmHg 73%
    18:00 +8°C° 0 mm 2 mps 749 mmHg 75%
    19:00 +7°C° 0 mm 3 mps 748 mmHg 77%
    20:00 +7°C° 0 mm 3 mps 748 mmHg 78%
    21:00 +7°C° 0 mm 3 mps 748 mmHg 77%
    22:00 +7°C° 0 mm 3 mps 748 mmHg 75%
    23:00 +7°C° 0 mm 3 mps 747 mmHg 74%
    Show more